Regional Weather Roundup
Issued by NWS

Home | Current Version | Previous Version | Text Only | Print | Product List | Glossary On
Versions: 1 2 3 4 5 6 7 8 9 10 11 12 13 14 15 16 17 18 19 20 21 22 23 24 25 26 27 28 29 30 31 32 33 34 35 36 37 38 39 40 41 42 43 44 45 46 47 48 49 50
000
ASUS43 KMKX 242120
RWRWI

WISCONSIN REGIONAL WEATHER ROUNDUP
NATIONAL WEATHER SERVICE MILWAUKEE/SULLIVAN WI
300 PM CST SAT JAN 24 2015

NOTE: "FAIR" INDICATES FEW OR NO CLOUDS BELOW 12,000 FEET WITH NO
SIGNIFICANT WEATHER AND/OR OBSTRUCTIONS TO VISIBILITY.

WIZ001-002-006>008-014>016-023>028-242200-
NORTHWEST WISCONSIN

CITY           SKY/WX    TMP DP  RH WIND       PRES   REMARKS
SUPERIOR ARPT  CLOUDY    38  30  74 CALM      29.61R
ASHLAND        LGT SNOW  29  27  92 NE13      29.63R FOG     WCI  19
HAYWARD        CLOUDY    37  28  70 N5        29.58F WCI  33
SIREN          CLOUDY    38  30  72 CALM      29.59S
CUMBERLAND     CLOUDY    36  30  80 CALM      29.58R
RICE LAKE      CLOUDY    38  30  73 CALM      29.59F
CHETEK         CLOUDY    38  30  73 CALM      29.59S
LADYSMITH      CLOUDY    37  31  81 W5        29.59S WCI  33
EAU CLAIRE     CLOUDY    38  29  70 SW7       29.59F WCI  33
MENOMONIE      CLOUDY    40  31  70 CALM      29.60F
NEW RICHMOND   CLOUDY    38  31  77 SE6       29.59F WCI  33
OSCEOLA        CLOUDY    40  31  71 CALM      29.61F
$$

WIZ003>005-009-010-017-018-242200-
NORTH CENTRAL WISCONSIN

CITY           SKY/WX    TMP DP  RH WIND       PRES   REMARKS
MANITOWISH WTR CLOUDY    32  28  85 N5        29.56R WCI  28
ARBOR VITAE    CLOUDY    37  30  76 N6        29.56R WCI  32
WOODRUFF       CLOUDY    37  30  76 N6        29.56R WCI  32
RHINELANDER    CLOUDY    36  26  67 NW6       29.55R WCI  31
EAGLE RIVER    CLOUDY    33  23  66 NW8       29.54R WCI  26
LAND O LAKES   CLOUDY    33  25  74 N7        29.55R WCI  26
PHILLIPS       CLOUDY    35  29  79 CALM      29.56S
TOMAHAWK       CLOUDY    35  28  75 CALM      29.56R
MEDFORD        CLOUDY    35  29  81 NW6       29.57R WCI  30
MERRILL        CLOUDY    37  29  74 NW5       29.56R WCI  33
$$

WIZ029-030-035-036-043>047-242200-
CENTRAL WISCONSIN

CITY           SKY/WX    TMP DP  RH WIND       PRES   REMARKS
WAUSAU         CLOUDY    36  30  79 W10       29.55S WCI  28
MOSINEE        PTSUNNY   36  32  87 NW7       29.57F WCI  30
MARSHFIELD     CLOUDY    36  30  79 SW7       29.57F WCI  30
STEVENS POINT  CLOUDY    34  29  85 W8        29.57F WCI  27
WAUPACA        CLOUDY    38  32  80 SW8       29.57F HAZE    WCI  32
WAUTOMA        CLOUDY    36  32  85 NW9       29.62R WCI  29
WISC RAPIDS    CLOUDY    35  30  82 W7        29.61S WCI  29
CAMP DOUGLAS   PTSUNNY   37  36  93 W6        29.61S WCI  33
$$

WIZ011>013-019>022-031-037>040-048>050-242200-
NORTHEAST WISCONSIN

CITY           SKY/WX    TMP DP  RH WIND       PRES   REMARKS
ANTIGO         CLOUDY    35  29  79 NW8       29.55R WCI  28
SHAWANO        CLOUDY    40  31  69 W3        29.56R
OCONTO         CLOUDY    40  31  70 W6        29.55R
STURGEON BAY   CLOUDY    37  30  75 W6        29.57R WCI  33
GREEN BAY      CLOUDY    37  32  82 MISG      29.57F
MANITOWOC      CLOUDY    38  33  82 W8        29.57F WCI  32
APPLETON       CLOUDY    36  30  80 SW7       29.58F WCI  30
CLINTONVILLE   CLOUDY    37  32  81 W5        29.56F WCI  34
OSHKOSH        CLOUDY    37  31  78 W7        29.60R WCI  32
$$

WIZ032>034-041-042-053>061-242200-
SOUTHWEST WISCONSIN

CITY           SKY/WX    TMP DP  RH WIND       PRES   REMARKS
LA CROSSE      SUNNY     44  31  60 N3        29.61F
SPARTA         PTSUNNY   39  30  69 SW5       29.62S
VIROQUA        SUNNY     40  32  71 W6        29.59F
BOSCOBEL       MOSUNNY   45  32  60 SW6       29.62F
PRAIRIE DU CHI SUNNY     44  33  64 SW8       29.61F
PLATTEVILLE    SUNNY     41  34  76 SW9       29.63S
$$

WIZ056-057-062-063-064-067-068-242200-
SOUTH CENTRAL WISCONSIN

CITY           SKY/WX    TMP DP  RH WIND       PRES   REMARKS
REEDSBURG      CLOUDY    35  32  88 W7        29.61S WCI  29
BARABOO/DELLS  CLOUDY    34  31  86 W7        29.61R WCI  28
LONE ROCK      CLOUDY    39  31  72 NW3       29.62F
MINERAL POINT  CLOUDY    39  32  75 W7        29.61F WCI  34
MADISON        CLOUDY    34  29  82 W6        29.62S WCI  29
MIDDLETON      CLOUDY    36  32  85 W5        29.63S WCI  32
WATERTOWN      CLOUDY    34  32  91 W6        29.61S WCI  29
MONROE         CLOUDY    34  32  93 W9        29.62S WCI  26
JANESVILLE     CLOUDY    36  30  80 W8        29.63F WCI  29
$$

WIZ051-052-058>065-066-070>072-242200-
SOUTHEAST WISCONSIN

CITY           SKY/WX    TMP DP  RH WIND       PRES   REMARKS
MILWAUKEE      CLOUDY    39  30  70 W8        29.61R WCI  33
WAUKESHA       CLOUDY    36  30  80 W12       29.61R WCI  27
MILWAUKEE/TIMM CLOUDY    37  30  75 W10       29.61S WCI  30
RACINE         CLOUDY    39  31  72 W8        29.63R WCI  33
BURLINGTON     CLOUDY    32  30  90 W7        29.62S WCI  26
KENOSHA        CLOUDY    39  32  76 W10       29.62R WCI  32
FOND DU LAC    CLOUDY    37  31  78 W8        29.60R WCI  31
SHEBOYGAN      CLOUDY    37  31  78 W10       29.59R WCI  30
WEST BEND      CLOUDY    36  30  80 W9        29.60R WCI  29
JUNEAU         CLOUDY    35  32  86 W6        29.61S WCI  30
$$

LSZ147-162-242200-
LAKE SUPERIOR

STATION/POSITION TIME  TEMP    WIND        PRES    WAVE
                       AIR SEA DIR/SP/G            HT/PER
                 (UTC) (F)     (DEG/KT/KT) (MB)    (FT/S)
DEVILS ISLAND    2100   26      80/ 23/ 25 1005.2R
PORT WING        2040   34     270/  5/  6 1003.0S
SAXON HARBOR     2000   29      50/ 18/ 22 1003.0
$$

LMZ867-665-643>646-242200-
LAKE MICHIGAN

STATION/POSITION TIME  TEMP    WIND        PRES    WAVE
                       AIR SEA DIR/SP/G            HT/PER
                 (UTC) (F)     (DEG/KT/KT) (MB)    (FT/S)
NORTHPORT PIER   2000   34      30/  7/  9 1001.0R
SISTER BAY       2013   37      80/  6/  9   N/A
KEWAUNEE LAKESHO 2100   38     270/  5/  9 1000.3F
SHEBOYGAN LAKESH 2100   38     260/  6/  9 1002.8R
PORT WASHINGTON  2000   40     270/  7/ 10 1003.0S
MILWAUKEE LAKESH 2100   38     260/  9/ 12   N/A
KENOSHA   LAKESH 2100   39     260/  9/ 11 1003.4R
$$

TC  - TEMPERATURE IN CELSIUS
VSB - VISIBILITY IN STATUTE MILES
WCI - WIND CHILL INDEX
HX  - HEAT INDEX




USA.gov is the U.S. government's official web portal to all federal, state and local government web resources and services.